Weather History for KVQQ - October, 2013

Change the Weather History Date:

Monday, October 7, 2013

  Actual Average (KJAX) Record (KJAX)
Temperature  
Mean Temperature 76 °F 73 °F  
Max Temperature 84 °F 82 °F 95 °F (1951)
Min Temperature 68 °F 64 °F 47 °F (1978)
Degree Days  
Heating Degree Days 0 0  
Month to date heating degree days 0  
Since 1 July heating degree days 0  
Cooling Degree Days 11 8  
Month to date cooling degree days 64  
Year to date cooling degree days 2450  
Growing Degree Days 26 (Base 50)    
Moisture  
Dew Point 71 °F    
Average Humidity 100    
Maximum Humidity 100    
Minimum Humidity 100    
Precipitation  
Precipitation 0.00 in 0.18 in 6.14 in (1996)
Month to date precipitation 1.33  
Year to date precipitation 44.88  
Snow  
Snow 0.00 in 0.00 in 0.00 in (2002)
Month to date snowfall 0.0  
Since 1 July snowfall 0.0  
Since 1 September snowfall 0.0  
Snow Depth -    
Sea Level Pressure  
Sea Level Pressure 29.84 in    
Wind  
Wind Speed 1 mph (ENE)    
Max Wind Speed 12 mph    
Max Gust Speed -    
Visibility 9 miles    
Events Rain    
T = Trace of Precipitation, MM = Missing Value Source: NWS Daily Summary

Daily Weather History Graph

Daily Weather History Graph

Search for Another Location

Airport or City:

Trip Planner

Search our weather history database for the weather conditions in past years. The results will help you decide how hot, cold, wet, or windy it might be!

Date:

Astronomy

Oct. 07, 2013 Rise Set
Actual Time 7:24 AM EDT 7:05 PM EDT
Civil Twilight 7:00 AM EDT 7:29 PM EDT
Nautical Twilight 6:32 AM EDT 7:57 PM EDT
Astronomical Twilight 6:05 AM EDT 8:24 PM EDT
Moon 10:00 AM EDT (10/7) 9:03 PM EDT (10/7)
Length of Visible Light 12h 28m
Length of Day
11h 40m
Waxing Crescent, 8% of the Moon is Illuminated
Oct 7
Waxing Crescent
Oct 11
First Quarter
Oct 18
Full
Oct 26
Last Quarter
Nov 3
New

Hourly Weather History & Observations

Time (EDT) Temp. Dew Point Humidity Pressure Visibility Wind Dir Wind Speed Gust Speed Precip Events Conditions
12:15 AM 73.4 °F 73.4 °F 100% 29.88 in 10.0 mi Calm Calm - N/A   Clear
12:35 AM 73.4 °F 73.4 °F 100% 29.88 in 10.0 mi Calm Calm - N/A   Clear
12:55 AM 73.4 °F 73.4 °F 100% 29.88 in 10.0 mi ESE 3.5 mph - N/A   Clear
1:15 AM 73.4 °F 73.4 °F 100% 29.88 in 10.0 mi Calm Calm - N/A   Clear
1:35 AM 73.4 °F 73.4 °F 100% 29.88 in 10.0 mi Calm Calm - N/A   Clear
1:55 AM 73.4 °F 73.4 °F 100% 29.88 in 10.0 mi Calm Calm - N/A   Clear
2:15 AM 71.6 °F 71.6 °F 100% 29.87 in 10.0 mi Calm Calm - N/A   Clear
2:35 AM 71.6 °F 71.6 °F 100% 29.86 in 10.0 mi Calm Calm - N/A   Clear
2:55 AM 71.6 °F 71.6 °F 100% 29.86 in 10.0 mi Calm Calm - N/A   Clear
3:15 AM 71.6 °F 71.6 °F 100% 29.85 in 10.0 mi Calm Calm - N/A   Clear
3:35 AM 71.6 °F 71.6 °F 100% 29.85 in 10.0 mi Calm Calm - N/A   Clear
3:55 AM 69.8 °F 69.8 °F 100% 29.84 in 10.0 mi Calm Calm - N/A   Clear
4:15 AM 71.6 °F 71.6 °F 100% 29.84 in 10.0 mi Calm Calm - N/A   Clear
4:35 AM 69.8 °F 69.8 °F 100% 29.84 in 10.0 mi Calm Calm - N/A   Clear
4:55 AM 68.0 °F 68.0 °F 100% 29.84 in 9.0 mi Calm Calm - N/A   Clear
5:15 AM 68.0 °F 68.0 °F 100% 29.84 in 10.0 mi Calm Calm - N/A   Clear
5:35 AM 68.0 °F 68.0 °F 100% 29.84 in 9.0 mi Calm Calm - N/A   Clear
5:55 AM 68.0 °F 68.0 °F 100% 29.84 in 9.0 mi Calm Calm - N/A   Clear
6:15 AM 68.0 °F 68.0 °F 100% 29.84 in 9.0 mi Calm Calm - N/A   Clear
6:35 AM 68.0 °F 68.0 °F 100% 29.84 in 10.0 mi Calm Calm - N/A   Clear
6:50 AM 68.0 °F 68.0 °F 100% 29.83 in 10.0 mi Calm Calm - N/A   Clear
7:50 AM 68.0 °F 68.0 °F 100% 29.84 in 10.0 mi Calm Calm - N/A   Scattered Clouds
8:50 AM 73.4 °F - N/A% 29.86 in 10.0 mi Calm Calm - N/A   Clear
9:50 AM 77.0 °F - N/A% 29.87 in 10.0 mi Calm Calm - N/A   Partly Cloudy
10:50 AM 80.6 °F - N/A% 29.85 in 10.0 mi South 6.9 mph - N/A   Partly Cloudy
11:50 AM 80.6 °F - N/A% 29.84 in 10.0 mi SSE 6.9 mph - N/A   Scattered Clouds
12:50 PM 82.4 °F - N/A% 29.82 in 10.0 mi Calm Calm - N/A   Scattered Clouds
1:50 PM 84.2 °F - N/A% 29.80 in 10.0 mi Variable 4.6 mph - N/A   Mostly Cloudy
2:50 PM 84.2 °F - N/A% 29.78 in 10.0 mi NNE 4.6 mph - N/A   Mostly Cloudy
3:50 PM 80.6 °F - N/A% 29.77 in 10.0 mi SSE 5.8 mph - N/A   Mostly Cloudy
4:50 PM 80.6 °F - N/A% 29.77 in 10.0 mi East 11.5 mph - N/A   Mostly Cloudy
5:50 PM 80.6 °F - N/A% 29.78 in 10.0 mi East 8.1 mph - N/A   Mostly Cloudy
6:50 PM - - N/A% 29.78 in 10.0 mi ENE 5.8 mph - N/A   Mostly Cloudy
7:50 PM - - N/A% 29.81 in 10.0 mi NE 5.8 mph - N/A   Mostly Cloudy
8:15 PM 75.2 °F - N/A% 29.80 in 2.5 mi ENE 4.6 mph - N/A Rain Light Rain
8:35 PM 75.2 °F - N/A% 29.81 in 2.0 mi NNE 3.5 mph - N/A   Scattered Clouds
8:55 PM 75.2 °F - N/A% 29.82 in 10.0 mi Calm Calm - N/A   Mostly Cloudy
9:15 PM 75.2 °F - N/A% 29.82 in 10.0 mi Calm Calm - N/A   Mostly Cloudy
9:35 PM 73.4 °F - N/A% 29.83 in 7.0 mi NNE 3.5 mph - N/A   Partly Cloudy
9:55 PM 73.4 °F - N/A% 29.83 in 5.0 mi Calm Calm - N/A   Haze
10:15 PM 73.4 °F - N/A% 29.84 in 8.0 mi Calm Calm - N/A   Partly Cloudy
10:35 PM 73.4 °F - N/A% 29.84 in 9.0 mi Calm Calm - N/A   Clear
10:55 PM 73.4 °F - N/A% 29.84 in 10.0 mi Calm Calm - N/A   Partly Cloudy
11:15 PM 73.4 °F - N/A% 29.84 in 10.0 mi Calm Calm - N/A   Partly Cloudy
11:35 PM 73.4 °F - N/A% 29.84 in 10.0 mi NW 4.6 mph - N/A   Scattered Clouds
11:55 PM 73.4 °F - N/A% 29.83 in 10.0 mi NNE 3.5 mph - N/A   Overcast